Chongqing, China

4:59 AM CST on November 22, 2019 (GMT +0800)
Jiangbei

Weather History for ZUCK - September, 2019

Change the Weather History Date:

Saturday, September 14, 2019

  Actual Average Record
Temperature  
Mean Temperature 70 °F -  
Max Temperature 73 °F - - ()
Min Temperature 66 °F - - ()
Cooling Degree Days 4    
Growing Degree Days 20 (Base 50)    
Moisture  
Dew Point 61 °F    
Average Humidity 73    
Maximum Humidity 83    
Minimum Humidity 55    
Precipitation  
Precipitation 0.00 in - - ()
Sea Level Pressure  
Sea Level Pressure 29.94 in    
Wind  
Wind Speed 6 mph ()    
Max Wind Speed 11 mph    
Max Gust Speed -    
Visibility 7.8 miles    
Events      
T = Trace of Precipitation, MM = Missing Value Source: Averaged Metar Reports

Daily Weather History Graph

Daily Weather History Graph

Search for Another Location

Airport or City:

Astronomy

Sep. 14, 2019 Rise Set
Actual Time 6:37 AM CST 7:00 PM CST
Civil Twilight 6:13 AM CST 7:24 PM CST
Nautical Twilight 5:45 AM CST 7:52 PM CST
Astronomical Twilight 5:16 AM CST 8:21 PM CST
Moon 7:23 PM CST (9/14) 6:25 AM CST (9/14)
Length of Visible Light 13h 11m
Length of Day
12h 23m
Full, 100% of the Moon is Illuminated
Sep 14
Full
Sep 14
Full
Sep 22
Last Quarter
Sep 29
New
Oct 6
First Quarter

Hourly Weather History & Observations

Time (CST) Temp. Dew Point Humidity Pressure Visibility Wind Dir Wind Speed Gust Speed Precip Events Conditions
12:00 AM 69.8 °F 59.0 °F 68% 29.92 in - West 8.9 mph - N/A   Clear
1:00 AM 69.8 °F 59.0 °F 68% 29.92 in 6.2 mi West 11.2 mph - N/A   Overcast
2:00 AM 71 °F 58 °F 55% 29.87 in 19 mi NW 6.7 mph - -  
2:00 AM 69.8 °F 60.8 °F 73% 29.92 in 6.2 mi West 6.7 mph - N/A   Overcast
3:00 AM 68.0 °F 60.8 °F 78% 29.92 in 6.2 mi WNW 8.9 mph - N/A   Overcast
4:00 AM 68.0 °F 60.8 °F 78% 29.92 in 6.2 mi West 6.7 mph - N/A   Overcast
5:00 AM 69 °F 60 °F 66% 29.88 in 19 mi North 4.5 mph - -  
5:00 AM 66.2 °F 60.8 °F 83% 29.95 in 6.2 mi NW 8.9 mph - N/A   Overcast
6:00 AM 66.2 °F 60.8 °F 83% 29.95 in 6.2 mi NW 6.7 mph - N/A   Overcast
7:00 AM 68.0 °F 60.8 °F 78% 29.95 in 6.2 mi WNW 4.5 mph - N/A   Overcast
8:00 AM 70 °F 61 °F 65% 29.94 in 17 mi WNW 4.5 mph - -   Overcast
8:00 AM 68.0 °F 60.8 °F 78% 29.98 in 6.2 mi WNW 6.7 mph - N/A   Overcast
9:00 AM 68.0 °F 60.8 °F 78% 30.01 in 6.2 mi West 4.5 mph - N/A   Overcast
10:00 AM 69.8 °F 62.6 °F 78% 29.98 in 6.2 mi South 4.5 mph - N/A   Mostly Cloudy
11:00 AM 72 °F 60 °F 58% 29.94 in 15 mi NW 6.7 mph - -   Overcast
11:00 AM 71.6 °F 62.6 °F 73% 29.98 in 6.2 mi SSE 4.5 mph - N/A   Mostly Cloudy
12:00 PM 71.6 °F 60.8 °F 69% 29.98 in 6.2 mi SW 8.9 mph - N/A   Mostly Cloudy
1:00 PM 71.6 °F 60.8 °F 69% 29.95 in 6.2 mi West 8.9 mph - N/A   Mostly Cloudy
2:00 PM 73 °F 62 °F 59% 29.90 in 11 mi NW 4.5 mph - -   Overcast
2:00 PM 71.6 °F 62.6 °F 73% 29.95 in 6.2 mi WNW 8.9 mph - N/A   Mostly Cloudy
3:00 PM 71.6 °F 62.6 °F 73% 29.92 in 6.2 mi WNW 6.7 mph - N/A   Mostly Cloudy
5:00 PM 72 °F 62 °F 62% 29.86 in 6 mi NNW 6.7 mph - -   Overcast
5:00 PM 69.8 °F 62.6 °F 78% 29.92 in 5.6 mi NW 8.9 mph - N/A   Scattered Clouds
6:00 PM 69.8 °F 62.6 °F 78% 29.92 in 5.6 mi WNW 8.9 mph - N/A   Partly Cloudy
7:00 PM 69.8 °F 62.6 °F 78% 29.92 in 5.0 mi NW 6.7 mph - N/A   Partly Cloudy
8:00 PM 71 °F 62 °F 65% 29.90 in 4 mi NNW 4.5 mph - -   Overcast
9:00 PM 68.0 °F 62.6 °F 83% 29.98 in 6.2 mi West 6.7 mph - N/A   Scattered Clouds
10:00 PM 68.0 °F 62.6 °F 83% 29.98 in 6.2 mi West 8.9 mph - N/A   Scattered Clouds
11:00 PM 70 °F 62 °F 69% 29.95 in 7 mi West 2.2 mph - -  
11:00 PM 68.0 °F 62.6 °F 83% 29.98 in 6.2 mi WNW 8.9 mph - N/A   Scattered Clouds